Location: Sortland
(68.7020°N, 15.4240°E)
Time: 14:31:03
(UTC+01:00)

Envisat - Pass Details

Date: 29 October 2019
Orbit: 764 x 766 km, 98.1° (Epoch: 17 November)

Event Time Altitude Azimuth Distance (km) Brightness Sun altitude
Rises 19:42:13 0° 221° (SW) 3,234 6.5 -23.3°
Reaches altitude 10° 19:45:18 10° 241° (WSW) 2,312 5.9 -23.5°
Maximum altitude 19:48:40 18° 283° (WNW) 1,844 5.8 -23.8°
Drops below altitude 10° 19:52:04 10° 325° (NW) 2,319 6.3 -24.1°
Sets 19:55:11 0° 345° (NNW) 3,250 6.8 -24.3°
